Wind_Speed
22 22 23 23 24 24 25 27 28 28 28 27 26 26 26 26 25 25 25 24 21 18 15 12 10 8 7 6 6 6 6 6 6 6 6 7 7 7 8 9 10 10 10 11 13 14 15 14 13 14 15 14 13 13 10 9 8 6 4 4 5 7 8 9 9 9 9 10 11 11 12 12 14 15 15 15 14 13 12 11 10 12 14 16 18
20 21 22 22 23 24 25 26 27 28 28 28 28 27 27 27 27 26 26 25 24 22 19 15 13 10 9 8 7 7 6 6 6 5 4 4 5 5 6 7 9 9 9 9 11 12 12 13 13 13 14 14 13 12 10 9 7 5 3 3 5 6 7 7 8 7 7 7 8 10 11 11 12 14 15 15 14 13 12 11 11 11 12 13 16
19 20 21 22 22 23 24 24 25 27 28 28 28 29 28 28 28 28 27 26 26 24 22 19 16 13 11 9 9 8 8 7 7 6 5 4 3 3 4 5 6 7 7 7 8 9 10 11 11 12 13 14 13 12 10 9 7 5 4 3 5 7 8 9 9 9 8 6 6 7 9 11 12 13 14 15 15 15 14 13 13 13 13 13 14
17 19 20 21 22 22 22 23 24 25 27 28 28 29 29 29 29 28 28 27 27 26 24 22 19 16 12 11 10 10 9 8 8 8 7 6 5 4 3 2 3 4 5 6 6 8 9 9 10 11 12 13 13 12 10 9 8 7 5 5 6 7 8 9 10 11 11 10 8 7 7 9 11 12 14 14 15 16 16 15 15 15 15 15 14
17 18 18 19 20 21 21 21 22 24 25 26 27 28 28 28 29 29 28 28 27 26 25 24 23 20 16 13 11 10 9 9 9 8 8 7 7 6 5 3 3 3 4 5 6 7 8 9 9 10 11 12 13 12 11 10 9 9 8 8 8 8 9 9 10 10 11 11 10 9 8 8 9 10 12 14 15 15 15 16 15 15 16 17 16
17 18 18 18 18 19 19 20 20 22 23 24 25 25 26 27 27 28 28 28 28 27 26 25 25 23 21 17 15 13 11 10 10 9 9 8 7 6 5 5 4 3 4 5 6 6 7 8 8 8 9 11 12 12 12 12 11 10 10 10 9 10 10 10 11 11 10 10 10 10 10 10 9 9 10 11 13 14 14 14 15 16 16 17 17
19 18 17 17 17 17 18 18 19 19 21 22 22 23 24 25 26 27 27 27 28 28 27 26 25 25 23 22 20 18 16 14 11 10 10 9 8 7 6 5 4 4 4 4 5 5 6 6 7 7 7 9 12 12 12 12 12 11 12 12 11 11 11 11 11 11 11 11 10 10 10 10 11 11 10 10 10 10 12 13 15 15 16 16 16
21 19 17 16 16 16 16 16 17 17 19 20 20 21 21 22 24 25 25 26 27 27 27 27 26 26 25 24 23 22 21 19 16 13 11 10 9 8 7 6 5 4 3 3 4 4 4 5 5 6 6 7 10 12 12 12 12 12 12 12 12 12 12 12 13 13 12 12 11 11 10 10 11 11 12 11 10 9 9 10 13 15 16 16 16
21 19 17 16 16 16 15 15 15 15 16 17 18 18 18 19 21 22 23 23 24 25 26 26 26 26 26 25 25 24 23 22 20 18 16 15 12 10 8 7 6 5 4 3 3 4 3 3 4 5 5 6 8 10 12 12 13 13 13 13 14 14 14 14 14 15 15 14 13 13 12 12 11 12 12 12 12 11 10 9 10 13 15 16 17
20 19 18 17 16 16 15 14 14 14 14 14 15 15 16 17 17 19 20 21 21 22 23 24 25 25 25 25 25 25 24 23 22 22 20 19 18 16 14 12 9 7 5 4 4 4 4 3 4 4 4 5 6 8 10 12 13 14 14 15 15 16 16 16 16 17 17 17 16 15 15 14 14 13 12 12 12 12 11 10 9 10 13 15 17
19 20 20 18 17 16 15 14 14 13 12 12 12 13 14 14 15 16 17 17 18 19 20 21 22 22 23 23 23 23 23 23 23 23 22 22 21 20 19 18 15 13 11 8 6 4 4 4 4 5 5 5 6 7 9 10 12 13 14 15 16 17 18 18 19 19 19 19 19 18 17 17 16 15 14 14 13 13 12 12 11 10 11 13 15
18 20 20 19 17 17 16 16 15 14 12 11 11 11 11 12 12 13 13 14 15 16 17 18 18 19 20 20 20 21 21 22 22 23 23 22 22 22 21 20 19 18 16 14 12 10 8 6 4 4 5 6 7 8 9 10 12 13 14 15 16 17 18 19 20 20 20 21 21 21 20 20 19 18 17 17 16 15 14 13 13 12 12 12 13
17 18 18 18 18 17 17 17 16 15 14 13 12 10 10 10 10 10 11 11 12 13 14 14 15 16 16 17 17 18 18 19 19 20 20 21 21 21 21 21 21 20 20 19 18 16 15 13 11 9 6 5 5 7 8 10 12 13 15 16 17 18 19 19 20 20 20 21 21 21 21 21 21 21 20 19 19 18 17 16 15 15 14 14 14
16 16 17 17 18 18 17 17 16 16 15 14 13 12 10 9 9 9 9 9 10 10 11 11 12 12 13 13 14 14 15 15 16 17 17 18 18 18 18 19 19 20 20 20 20 20 19 18 17 16 14 13 11 9 8 7 8 9 11 12 14 16 17 18 19 20 21 21 21 21 21 21 21 22 22 22 21 21 20 19 18 17 16 16 16
14 14 15 16 16 17 17 17 16 16 16 15 14 13 12 12 11 10 9 9 9 9 9 9 9 10 10 10 11 11 11 12 13 13 14 14 14 15 15 15 16 17 17 18 18 18 18 18 18 18 17 16 16 15 13 12 12 12 12 12 12 13 14 15 16 17 19 20 21 21 22 22 21 21 21 22 22 22 22 22 21 20 19 19 18
11 12 14 15 15 17 17 17 17 17 16 15 14 14 14 14 13 12 11 11 10 9 9 9 8 8 9 8 9 9 9 9 9 10 10 11 11 12 12 13 14 14 15 15 15 15 16 16 16 16 16 16 16 16 15 15 14 14 14 14 15 15 15 16 16 16 17 18 19 20 21 22 22 22 22 21 22 22 22 23 23 23 22 21 21
11 12 13 14 16 17 17 17 17 17 16 16 15 14 15 15 14 14 13 12 12 11 11 10 10 9 9 9 9 8 8 8 8 7 8 8 9 9 10 11 12 12 13 13 13 13 13 13 13 13 14 14 14 15 15 14 14 15 15 15 15 15 16 17 17 17 17 18 18 19 19 21 22 22 23 23 22 22 22 22 23 24 24 24 23
13 13 14 15 17 17 17 17 17 16 17 17 16 16 16 16 15 15 14 13 13 13 12 12 12 11 11 10 10 10 10 9 9 8 8 7 7 7 8 9 10 10 11 11 11 12 12 12 12 12 12 12 13 13 13 13 14 14 15 15 15 15 16 17 17 18 18 19 19 19 19 20 20 21 22 23 23 23 22 22 22 23 25 25 25
15 15 15 15 15 16 16 15 15 16 17 17 17 17 17 16 16 15 15 14 14 14 14 13 13 13 13 12 12 12 11 11 11 11 11 10 9 8 8 8 9 9 9 10 10 11 11 12 12 13 13 13 13 12 12 13 13 13 14 15 15 16 16 16 17 18 19 19 20 21 21 22 21 21 21 21 22 23 23 23 22 22 23 25 26
15 15 15 15 14 15 15 15 15 16 17 17 17 17 17 16 16 15 15 15 15 15 14 14 14 14 14 13 13 13 12 12 12 12 13 13 13 12 11 10 10 10 10 10 11 11 11 12 12 13 13 13 13 13 13 14 14 14 14 15 15 16 16 17 17 17 18 19 20 21 22 24 24 24 23 22 22 22 23 23 24 23 23 24 25
14 15 15 15 15 14 15 16 16 16 16 16 16 17 17 17 16 16 15 15 15 15 14 14 14 14 14 14 14 13 13 13 13 13 13 14 15 15 15 14 13 13 12 13 12 12 12 11 12 13 13 13 14 15 15 15 15 15 16 16 16 16 17 17 18 18 18 19 20 21 22 24 25 26 26 25 23 22 22 22 23 24 23 23 24
14 15 15 16 16 15 15 16 17 16 16 15 16 16 16 17 17 17 16 16 16 15 15 14 14 14 15 15 15 15 15 15 14 14 14 14 14 15 16 16 16 15 15 15 14 14 14 14 13 14 14 15 16 16 16 17 17 17 17 17 18 18 18 18 19 19 19 20 20 20 21 22 24 25 26 27 26 24 22 21 22 23 23 24 24
16 16 16 16 17 17 16 16 17 18 17 16 16 16 15 15 15 16 17 17 16 16 16 16 15 15 15 15 15 16 16 16 16 16 15 15 15 15 16 16 17 17 17 17 17 16 16 16 16 16 16 18 18 17 17 19 19 19 19 19 19 19 19 20 20 20 20 20 21 21 21 21 22 24 25 26 27 26 24 22 21 22 23 23 24
18 17 17 17 16 17 17 16 16 17 17 17 16 16 15 14 14 14 15 16 17 17 17 17 17 17 16 16 16 16 16 17 17 17 17 17 16 16 16 16 17 17 18 18 18 18 18 18 18 18 18 19 20 20 19 20 20 21 21 21 21 21 20 20 21 21 21 21 22 22 22 22 22 22 24 25 26 26 26 24 22 21 21 22 23
20 19 18 17 17 17 17 16 16 16 16 16 16 17 17 16 15 15 15 15 17 17 18 17 17 17 17 18 18 18 18 18 18 18 18 18 18 18 17 18 17 18 18 18 18 18 19 19 19 19 19 19 21 22 23 22 21 22 23 23 24 23 22 22 21 21 22 22 23 23 23 23 23 22 23 23 25 25 25 25 23 22 21 22 23
19 19 19 18 17 17 16 16 16 15 15 15 16 17 18 18 18 17 17 16 16 17 17 17 17 17 17 17 18 18 18 18 18 19 19 19 19 19 19 19 18 18 18 19 19 18 19 19 20 20 20 20 20 21 23 23 23 23 23 24 25 25 25 24 22 22 22 23 24 24 24 25 25 24 23 23 23 24 24 24 24 23 22 21 22
17 17 18 18 18 18 18 16 15 16 16 16 16 17 17 18 19 19 19 18 17 17 17 18 18 18 18 18 17 17 18 18 18 19 19 19 19 19 19 19 20 20 19 19 19 19 19 20 20 20 21 21 20 20 21 23 23 23 24 25 25 26 26 26 24 23 23 23 24 25 26 26 26 26 25 24 23 23 23 23 23 23 22 22 21
17 17 17 17 17 18 19 19 17 17 18 18 18 17 17 17 18 19 20 20 20 20 20 20 20 20 19 19 19 19 19 19 19 19 19 19 19 19 19 20 20 21 20 20 19 20 20 21 21 21 22 22 22 21 21 22 23 23 24 24 25 26 26 26 26 25 24 24 25 26 27 27 27 27 26 25 24 24 23 22 21 22 22 22 21
18 17 16 16 16 17 19 20 20 19 19 20 20 19 19 18 18 19 20 21 21 21 21 22 21 21 21 21 22 22 22 21 21 20 19 19 19 19 19 20 20 20 20 20 20 20 20 21 21 21 22 23 23 23 22 22 23 23 24 24 25 25 26 26 26 26 25 25 25 26 28 28 28 28 27 26 25 24 23 22 21 21 21 21 21
16 15 14 14 15 16 17 19 21 21 21 21 21 22 21 21 20 20 20 21 22 22 22 23 23 23 23 22 22 23 23 23 23 23 22 21 20 20 20 20 20 20 20 19 20 20 20 21 21 21 21 22 23 23 23 23 23 24 24 24 25 25 25 25 25 26 26 26 25 26 28 29 29 29 28 27 25 24 23 23 21 20 20 20 20
14 14 13 13 14 15 17 18 20 21 21 21 21 21 22 22 22 22 22 22 22 22 23 23 23 24 24 23 23 23 23 22 22 23 24 24 23 22 22 22 22 22 21 20 20 21 21 22 22 23 22 22 22 22 23 23 23 23 23 23 24 24 24 23 24 25 26 26 25 26 27 29 30 30 29 27 26 25 24 24 23 21 21 21 20
13 13 13 12 13 14 15 16 18 20 21 21 21 21 22 22 23 23 23 23 23 23 23 23 23 24 24 24 24 24 23 23 22 22 22 23 23 23 22 23 23 23 23 23 22 22 23 23 22 22 22 21 21 21 22 22 22 22 22 23 23 24 24 23 24 25 25 26 26 27 27 28 30 31 30 28 27 26 25 24 24 23 22 22 22
15 14 14 14 15 16 17 17 18 19 20 21 21 22 22 22 23 24 24 24 24 24 25 25 25 25 25 25 25 24 24 24 23 23 22 22 22 22 22 22 22 23 23 23 23 23 24 23 21 20 19 19 20 20 21 21 22 22 22 23 24 24 25 24 24 24 25 25 26 28 28 28 30 31 30 29 28 27 26 25 24 24 23 23 23
15 15 17 18 20 21 22 22 22 22 23 23 23 22 22 22 23 24 24 24 24 25 25 26 26 26 26 26 26 25 25 25 24 24 24 23 23 23 22 22 22 23 23 23 23 23 23 22 20 18 19 19 19 19 20 20 21 21 22 22 23 24 25 25 24 24 24 25 26 28 29 29 30 31 31 30 30 29 28 26 25 25 25 24 24
16 17 19 21 22 24 24 25 25 25 25 25 24 23 23 23 24 25 26 25 24 24 25 26 26 26 26 25 25 25 25 26 26 26 26 26 25 24 23 23 23 23 22 22 23 23 23 21 19 18 18 19 20 20 20 20 20 20 21 21 22 24 25 26 25 24 25 25 25 27 28 29 30 32 33 33 32 31 30 29 27 26 26 25 25
19 20 20 22 24 26 26 26 26 26 26 26 26 26 26 26 26 27 27 27 26 24 24 24 24 25 24 25 25 25 25 26 26 27 28 27 26 25 24 23 24 24 23 23 22 22 22 20 19 18 18 19 20 20 21 21 21 21 21 22 23 24 26 28 28 27 26 26 25 25 27 29 30 32 34 34 34 33 32 31 29 28 27 26 26
19 21 23 25 26 27 27 26 27 27 27 27 27 27 27 27 27 27 28 29 28 27 25 25 24 24 25 25 26 27 27 27 27 27 28 29 28 27 25 24 25 25 24 23 22 22 21 20 19 19 19 19 20 21 22 23 23 24 24 24 24 25 27 28 29 29 29 28 26 25 26 28 30 32 33 35 35 34 33 33 32 30 29 28 27
21 22 24 25 26 27 27 27 28 28 29 28 27 27 27 28 28 28 29 31 31 31 30 29 29 28 28 28 28 28 28 28 27 27 27 28 28 28 26 25 24 24 23 22 21 21 20 20 19 20 20 20 21 22 23 24 25 26 27 27 27 27 28 29 29 30 30 30 29 27 26 27 30 31 33 34 35 35 34 34 34 32 30 29 28
22 22 23 24 25 26 26 27 28 29 29 29 28 27 27 28 28 29 30 32 33 34 33 33 33 33 32 32 31 31 30 30 29 27 26 26 27 28 26 23 22 21 21 21 22 21 21 21 21 21 22 22 23 24 24 25 26 27 28 29 29 30 30 30 30 31 31 31 31 29 28 28 29 31 33 34 35 35 34 33 33 33 31 29 29
24 24 24 25 25 25 25 26 27 28 29 30 30 29 28 28 28 28 30 33 34 34 34 34 34 35 35 34 33 32 32 32 31 29 28 27 27 27 26 24 22 22 22 23 23 23 24 24 24 25 25 26 26 27 26 27 27 29 30 30 31 31 32 32 32 31 31 31 31 31 30 29 29 29 32 34 34 34 33 32 32 31 30 29 29
27 28 29 29 28 27 26 26 26 27 29 30 31 31 31 31 31 30 32 34 35 34 34 34 34 34 36 36 35 34 33 32 32 32 30 29 29 28 28 27 27 26 26 26 26 26 27 27 27 28 29 29 30 31 31 31 31 31 32 32 32 32 33 33 33 32 32 31 32 32 32 31 29 29 31 33 33 33 32 30 30 29 28 28 28
30 32 33 33 33 32 31 29 29 29 30 31 32 32 32 33 33 33 34 35 35 35 34 33 33 33 34 35 36 36 35 33 33 33 32 31 30 30 29 29 30 30 30 30 29 30 30 30 30 31 31 32 33 33 34 35 35 35 35 35 35 34 34 34 34 34 33 32 32 33 32 31 30 29 30 32 32 31 30 29 28 28 27 28 28
35 37 37 37 36 36 35 34 33 33 33 34 35 35 34 34 33 34 35 36 37 36 36 34 33 32 33 34 36 37 36 35 34 35 34 33 32 32 31 31 31 32 32 33 33 34 34 34 34 34 35 35 36 36 36 37 37 37 37 37 38 37 35 35 35 35 35 34 34 34 33 32 31 29 29 31 31 30 29 28 27 26 27 28 28
39 40 39 39 38 38 38 38 37 37 37 37 38 38 38 37 36 36 37 37 38 39 38 37 35 34 34 34 35 36 37 37 36 36 36 35 34 34 34 33 33 33 34 35 36 37 38 38 38 38 38 39 39 39 39 39 39 39 38 39 39 39 37 37 36 36 36 36 36 35 33 32 31 30 29 29 29 28 28 27 26 26 27 28 28
39 38 38 37 38 38 39 39 39 39 40 40 41 41 40 39 39 39 39 39 40 41 41 40 39 38 37 37 38 38 39 39 39 39 38 38 37 37 37 36 36 36 36 37 38 39 40 41 41 42 42 42 42 42 41 41 41 40 39 39 39 39 39 38 37 36 36 36 36 35 35 33 32 31 30 29 28 27 26 27 27 26 26 27 28
38 37 37 37 38 40 41 41 41 40 41 42 42 43 42 40 39 39 39 40 41 42 43 43 43 42 42 41 41 41 41 42 42 41 41 39 39 40 40 40 39 39 40 40 41 41 42 42 42 43 43 42 43 44 44 44 43 41 40 39 39 39 40 40 38 36 36 36 35 36 36 34 31 30 30 28 26 25 26 27 27 27 27 27 28
38 38 39 40 42 43 44 44 44 44 43 44 44 43 43 41 41 41 41 41 42 43 43 44 43 43 43 43 43 43 43 43 44 44 43 42 41 41 41 41 41 42 43 43 42 41 41 40 41 41 41 42 44 45 45 43 42 41 40 39 39 39 41 41 38 37 36 36 35 35 35 33 30 30 30 28 26 25 26 27 28 28 28 28 28
40 41 43 44 46 47 47 46 46 46 46 46 46 45 45 44 44 45 45 45 45 44 44 44 44 44 44 44 44 44 44 45 45 45 44 43 42 42 42 42 42 43 43 42 41 39 39 39 39 40 40 41 42 42 41 41 40 40 40 40 40 40 42 41 39 38 38 35 33 34 34 32 29 29 29 27 26 26 27 28 28 29 29 29 29
45 46 46 48 48 49 48 48 48 48 48 47 47 47 46 46 46 47 48 48 47 47 47 46 45 45 45 45 46 46 47 47 47 46 45 44 43 43 43 43 42 42 42 41 41 40 39 39 39 39 39 39 38 39 39 40 40 40 40 40 40 41 42 40 38 39 39 36 33 32 32 30 29 30 31 29 27 27 29 29 29 29 29 29 29
48 49 49 50 50 50 50 50 50 49 49 49 48 48 48 48 48 48 48 48 49 49 50 49 47 46 46 47 47 48 50 50 49 47 45 44 44 44 43 42 42 42 42 41 41 40 40 40 39 39 38 37 37 38 40 40 40 41 42 41 41 41 42 41 39 39 38 36 33 32 31 30 30 31 32 31 29 29 30 30 30 30 29 29 30
51 51 51 51 52 52 53 52 52 51 51 50 50 49 49 49 49 49 49 50 50 51 51 51 50 49 48 48 48 49 49 49 48 46 45 44 44 44 42 42 42 42 42 41 41 40 40 40 39 38 37 36 37 37 38 39 40 41 41 41 40 41 42 42 39 36 36 35 35 33 32 32 32 32 32 32 32 30 30 31 31 31 30 30 30
Wind_Direction
37 37 36 36 36 34 33 35 37 38 38 37 37 38 38 38 38 38 39 38 36 32 29 29 29 28 22 8 358 351 342 338 340 343 334 317 307 298 290 287 285 283 276 270 267 264 263 266 269 267 262 254 245 240 238 246 255 266 285 315 320 318 316 309 304 297 287 272 264 262 259 257 257 257 257 258 261 267 270 269 266 260 258 260 256
37 37 37 37 37 36 34 34 37 38 38 38 38 39 39 39 40 39 40 41 41 39 36 35 39 44 44 37 33 30 23 15 10 4 347 321 303 293 286 284 285 286 283 275 271 268 264 265 269 270 264 254 245 239 239 245 254 268 292 330 339 343 347 340 331 324 313 288 271 265 262 261 259 259 261 261 259 262 266 267 267 265 264 263 256
36 38 38 38 38 37 36 34 37 40 40 39 38 39 40 40 40 41 41 41 42 43 43 42 43 48 51 48 45 41 37 33 31 30 27 13 346 313 286 279 278 282 285 282 278 276 272 269 270 272 267 256 245 239 241 247 255 268 286 323 340 350 0 4 3 0 357 341 310 285 272 269 267 265 266 265 262 261 264 265 264 265 267 266 261
35 39 38 38 39 38 37 35 37 40 41 40 39 39 40 41 41 42 42 42 42 43 44 45 46 47 49 48 46 44 40 37 39 37 35 33 26 19 354 312 292 288 291 292 290 286 281 276 272 273 270 259 246 243 245 248 257 269 281 303 321 332 346 358 7 11 15 13 360 335 303 282 275 274 273 271 269 266 263 262 260 260 258 255 256
33 39 38 37 38 38 38 37 37 41 43 42 41 41 41 43 43 43 43 44 44 45 45 45 46 46 47 46 46 45 42 40 42 41 39 39 38 37 30 16 359 334 319 313 307 296 287 281 276 274 271 259 246 243 247 252 259 271 280 291 304 314 326 337 348 359 7 12 13 6 350 323 300 287 281 276 273 270 267 264 261 257 253 250 249
32 37 38 37 38 37 37 38 39 42 45 45 44 44 45 46 46 46 46 46 46 47 47 46 46 47 48 48 47 46 45 43 40 40 40 40 41 44 43 34 22 5 343 326 316 305 293 285 281 279 271 257 245 241 246 253 261 270 279 286 295 306 315 324 330 337 345 353 359 3 2 353 338 321 305 292 282 275 271 268 265 259 256 255 252
31 33 34 36 38 37 36 38 40 43 48 49 47 47 47 49 50 50 49 49 49 50 51 51 49 49 50 50 49 49 50 48 43 40 40 41 42 43 42 36 25 11 349 330 322 314 300 291 288 286 275 254 242 241 246 254 263 271 279 286 294 302 309 315 320 324 328 333 336 342 348 348 344 340 336 329 313 295 279 269 266 265 262 261 258
29 28 27 31 36 38 34 35 39 43 48 51 50 49 49 50 51 52 51 51 52 53 53 54 53 52 52 52 51 50 51 52 50 48 46 46 45 41 38 33 25 12 348 330 327 322 309 300 295 293 284 258 242 241 246 254 264 271 279 287 293 299 303 307 310 313 316 318 320 322 326 328 329 333 337 338 336 327 308 282 268 266 266 265 264
31 29 27 27 30 34 32 31 35 41 48 51 51 52 52 52 52 53 54 53 54 54 54 55 54 54 53 53 53 52 52 52 53 53 52 52 51 46 42 36 30 18 0 346 337 327 317 312 305 297 290 271 251 245 249 256 263 270 276 282 288 292 296 299 301 303 305 307 309 310 311 311 312 316 321 325 329 332 330 315 288 270 265 264 264
29 31 32 30 29 29 29 29 30 33 41 46 49 52 54 54 53 53 55 55 55 55 55 56 56 55 55 54 53 53 53 53 53 53 53 54 53 52 50 48 45 37 25 10 346 331 327 322 312 300 292 280 267 258 257 262 267 272 276 280 284 288 290 292 293 295 297 298 299 300 300 301 301 301 303 307 312 318 322 321 314 293 273 265 262
25 28 30 31 31 29 26 25 27 26 31 39 43 48 51 52 53 54 55 56 56 56 56 57 57 57 57 55 54 54 54 53 53 53 53 53 53 53 53 53 52 51 48 42 26 5 345 326 311 301 295 288 281 273 270 271 273 276 279 282 285 288 289 290 290 291 291 292 292 292 292 292 292 292 292 293 294 299 304 307 309 306 292 276 265
24 25 25 26 28 30 27 22 21 20 22 26 30 36 43 44 47 51 53 53 54 56 56 56 56 56 56 56 56 55 55 54 53 53 52 51 52 51 51 52 52 53 54 54 51 47 40 24 359 327 305 297 291 287 284 283 284 284 285 286 287 289 290 290 291 291 290 289 288 288 287 286 285 285 285 285 285 285 288 291 294 297 296 289 277
22 24 22 22 22 25 27 24 19 16 13 13 14 18 26 31 35 40 45 48 49 51 53 53 53 54 54 54 55 55 56 55 54 54 53 52 51 50 49 48 49 49 50 51 51 51 50 49 45 38 24 359 330 310 300 295 293 291 291 290 290 290 290 290 290 290 290 289 288 287 286 284 283 282 281 280 280 279 278 279 282 285 286 287 284
18 20 19 19 19 20 22 23 21 16 11 7 6 5 7 12 16 18 25 33 37 38 41 44 48 50 51 51 51 52 53 54 54 54 53 53 52 51 49 47 46 46 45 45 45 46 46 46 45 43 41 37 32 22 6 350 335 322 315 309 304 300 297 294 292 290 290 289 289 288 287 286 284 282 280 277 276 275 275 274 273 275 277 278 280
12 12 13 14 15 17 15 16 19 17 12 8 5 2 359 359 359 1 4 8 15 20 22 25 31 37 41 43 45 46 47 49 51 51 51 50 50 49 48 46 44 44 43 42 41 40 40 40 39 38 37 35 33 30 26 21 15 7 0 352 343 334 325 317 310 303 298 294 291 289 287 287 286 284 281 278 274 272 271 271 270 269 270 271 273
2 0 5 8 9 13 12 9 11 10 8 8 7 4 1 357 353 351 352 352 354 358 0 2 5 11 17 22 28 33 35 37 41 45 46 45 43 41 40 38 39 39 38 37 36 35 34 34 32 31 30 29 28 26 23 20 17 13 9 5 1 356 349 343 337 329 320 312 305 299 293 289 286 284 282 279 276 273 270 268 267 266 266 266 268
347 349 354 359 4 8 8 7 5 2 1 1 2 5 4 359 353 350 349 348 347 346 345 345 346 348 351 355 0 6 9 11 15 22 28 31 30 27 26 25 27 28 28 27 27 27 27 26 25 23 20 19 18 17 14 12 11 9 6 4 1 359 356 352 348 344 338 332 324 316 308 299 292 287 283 281 278 276 272 269 266 264 263 262 263
338 341 345 351 356 357 -0 4 0 357 359 357 357 -0 -0 356 353 352 350 349 348 346 343 340 339 338 338 338 340 343 346 347 347 350 354 360 5 7 8 8 10 12 14 13 13 14 14 13 13 12 10 9 9 6 2 1 1 360 358 357 356 355 354 352 350 348 345 342 339 333 326 316 307 297 288 283 279 277 275 272 268 264 261 260 259
334 334 337 342 345 345 347 352 353 354 357 357 356 357 354 350 349 349 347 348 350 349 346 344 342 339 337 335 333 332 332 333 333 333 332 332 335 340 345 347 347 349 353 355 355 357 358 357 358 358 357 358 357 352 350 350 349 349 348 347 347 346 346 346 346 345 344 344 343 341 338 332 325 315 303 293 284 278 275 273 270 267 262 260 258
331 328 328 329 330 333 335 338 345 350 353 353 355 355 351 346 346 345 344 346 349 349 348 347 346 345 342 340 337 334 330 328 326 325 323 323 323 324 326 327 327 328 332 334 336 340 342 343 343 344 346 346 342 340 342 343 341 339 338 337 337 337 337 338 338 339 339 340 341 341 341 339 335 330 322 310 296 285 277 273 271 269 265 262 258
323 321 321 320 321 324 327 330 336 342 345 347 350 352 349 345 344 345 345 345 346 345 345 346 347 347 346 345 343 341 339 335 331 327 323 321 320 319 319 318 317 316 317 318 320 323 325 326 327 329 331 331 328 330 335 337 336 334 332 332 331 330 330 330 331 332 333 334 335 337 339 339 338 335 331 324 313 300 287 277 272 269 267 264 261
315 314 315 317 317 319 323 326 328 332 335 339 344 347 346 344 344 345 345 345 343 341 341 343 344 345 345 346 345 345 345 344 341 336 331 325 320 317 316 315 313 312 311 310 309 310 312 313 315 317 318 317 318 324 328 328 328 327 327 327 326 325 325 325 325 326 327 329 330 331 333 335 336 335 334 331 325 317 303 288 277 271 267 264 262
312 311 312 315 317 319 322 324 324 327 330 334 337 337 336 340 342 343 343 344 343 342 341 341 342 342 343 344 344 344 344 344 343 341 338 332 327 322 319 316 314 312 311 309 307 306 306 306 307 309 309 310 312 316 318 318 320 321 322 322 322 321 322 322 322 322 323 324 325 326 327 329 331 333 333 332 330 326 317 304 289 277 270 265 263
313 311 309 311 314 317 320 321 323 325 326 328 328 325 326 332 336 338 340 341 342 342 343 343 343 342 342 342 342 342 341 341 341 339 337 335 332 329 325 322 319 317 315 313 310 309 307 305 305 305 305 306 308 308 308 310 313 316 317 317 318 319 319 319 319 319 320 321 321 322 322 323 325 327 329 330 331 329 325 318 306 292 280 271 265
314 312 309 308 309 313 317 319 321 321 321 321 320 320 322 325 329 332 336 339 342 342 342 343 343 342 342 341 341 340 339 338 337 335 334 332 331 330 327 325 323 322 319 317 315 313 310 308 306 305 304 304 305 304 304 306 308 309 311 312 314 316 316 316 316 317 319 320 320 319 319 319 320 321 323 326 328 329 328 325 319 308 294 281 270
312 311 308 306 307 307 309 312 313 313 312 311 312 317 320 323 326 328 330 335 339 339 339 340 339 339 338 338 336 334 333 333 332 331 331 329 327 326 326 324 323 322 320 318 318 316 312 309 308 307 305 304 303 302 302 304 305 305 305 307 310 312 313 313 313 315 317 319 319 318 316 316 316 317 318 320 321 324 326 327 325 320 310 297 283
312 310 307 306 305 303 302 301 302 304 305 306 309 314 318 320 322 323 324 327 330 332 333 334 333 333 333 331 329 327 327 327 327 326 326 324 322 322 321 321 321 320 319 317 316 315 313 311 309 307 306 304 303 302 302 303 304 304 303 304 306 309 310 311 311 312 314 316 317 316 315 315 315 314 314 315 315 317 321 325 326 325 321 313 301
316 313 310 307 306 304 303 303 303 303 304 305 306 307 309 311 313 316 319 321 324 325 326 326 327 328 327 325 324 324 324 323 322 321 319 318 317 317 317 318 319 319 317 314 313 312 312 311 310 308 308 307 307 306 305 304 304 303 303 304 306 307 308 309 309 310 311 313 314 314 314 315 315 313 311 310 310 312 315 319 323 325 325 323 317
318 316 313 308 304 302 301 302 303 303 302 302 303 303 303 304 307 312 316 318 319 320 320 320 321 321 321 321 321 321 320 318 316 314 313 312 312 312 313 314 315 315 312 310 310 310 309 308 307 307 307 307 307 306 305 304 304 305 306 307 308 308 309 309 308 308 309 310 310 311 311 312 313 313 310 306 305 308 310 313 317 321 323 324 324
314 314 313 307 300 295 292 293 296 298 300 301 301 303 305 306 308 310 311 312 313 314 315 315 316 316 317 317 316 314 313 313 312 311 310 310 309 309 309 310 311 311 309 308 308 308 307 306 305 304 304 303 304 304 304 303 303 304 305 306 308 309 310 310 307 306 306 306 306 306 306 307 309 310 308 303 302 305 306 308 311 314 318 321 323
307 308 305 299 292 288 286 287 290 294 296 298 300 303 305 308 309 309 309 310 310 311 312 312 312 312 312 311 309 308 307 307 307 308 309 309 309 309 308 308 309 309 310 309 308 306 306 305 306 307 306 305 304 302 301 300 300 301 302 304 306 308 309 310 308 306 305 305 304 301 301 302 304 306 306 302 300 301 303 304 307 310 313 316 319
308 305 302 297 293 290 289 289 290 293 295 298 302 305 308 310 310 310 310 311 311 310 310 309 309 308 307 306 305 304 304 303 303 304 304 305 305 305 305 305 306 308 310 311 310 308 307 307 308 309 309 310 309 307 305 304 303 302 302 303 304 305 307 308 308 307 306 305 304 301 299 298 299 301 303 301 297 297 299 302 304 307 310 312 315
314 312 310 310 309 307 305 303 301 301 302 303 305 307 308 309 309 309 310 310 310 311 310 310 309 307 306 305 305 304 304 305 306 305 304 302 301 300 301 302 303 304 306 308 308 306 306 307 308 309 310 313 313 313 311 308 306 306 305 304 304 305 305 306 307 307 307 306 306 304 301 298 296 297 298 298 295 293 294 297 300 303 306 308 312
310 310 311 313 315 316 316 315 314 312 311 309 308 308 308 309 308 307 306 306 307 308 308 307 306 305 304 304 304 305 305 306 306 306 304 303 302 301 301 300 300 301 302 302 302 302 302 303 304 308 313 315 315 314 311 309 308 308 307 306 306 305 305 305 306 307 307 307 307 305 303 300 297 294 294 294 293 291 289 290 294 299 302 304 308
306 307 311 315 319 321 321 319 318 317 315 314 312 311 310 309 307 305 304 304 304 304 302 302 302 302 303 303 303 303 303 304 304 304 303 303 303 301 299 298 297 298 299 299 299 299 299 300 301 307 313 314 313 312 312 311 310 309 308 307 306 305 305 304 304 305 305 305 305 304 302 299 296 293 291 291 291 289 287 286 288 293 297 300 303
305 306 309 314 318 320 320 319 318 318 317 316 314 312 310 308 307 307 306 306 306 306 303 302 303 303 304 303 303 303 302 302 302 302 302 301 301 299 297 295 295 295 295 296 296 295 295 295 298 304 310 311 311 312 314 314 314 313 311 309 307 305 304 303 303 302 302 302 303 303 301 298 295 291 288 288 287 287 286 284 285 289 292 296 298
304 304 307 311 315 317 317 317 317 316 315 314 313 312 311 310 310 311 311 311 312 312 311 309 308 307 306 305 305 304 304 302 301 301 301 300 299 297 294 292 293 294 293 293 292 292 292 292 296 301 306 309 310 312 315 317 317 318 317 314 311 308 305 304 303 303 302 301 301 302 301 299 296 291 287 286 285 285 285 284 284 286 289 292 295
306 306 308 310 312 313 314 314 313 313 312 311 311 311 311 311 312 312 312 313 314 315 314 313 312 311 310 308 308 308 307 305 304 303 302 301 300 299 295 292 291 291 290 289 290 291 293 295 297 300 303 306 307 309 312 314 316 317 317 316 315 311 308 306 306 306 306 304 303 301 300 298 298 295 290 286 284 283 283 282 282 283 286 290 292
301 301 303 304 305 307 308 309 309 309 308 307 307 308 309 309 309 309 309 310 312 314 314 314 314 313 312 311 310 310 309 309 308 308 307 306 305 304 302 296 290 288 288 289 292 296 298 300 302 303 304 305 305 306 308 309 311 312 314 314 314 312 310 308 308 307 307 307 306 303 299 297 297 297 294 287 282 281 281 281 280 280 283 287 288
303 304 304 303 303 304 304 304 305 304 304 304 305 306 306 306 305 304 304 305 308 311 312 312 312 312 310 310 309 309 309 309 309 310 310 310 309 308 306 302 297 294 294 295 297 300 302 304 305 305 305 306 306 306 306 307 307 309 310 310 310 310 310 311 310 308 307 307 307 305 302 298 296 298 296 291 284 281 281 281 280 279 281 283 285
308 309 308 307 306 306 305 304 302 301 301 303 303 304 305 304 303 303 302 303 305 307 308 308 308 307 306 306 306 306 306 307 308 308 308 309 308 307 306 305 303 301 300 299 300 301 302 303 303 304 305 305 306 307 307 306 306 306 307 308 307 306 307 310 311 309 307 306 305 306 307 303 299 298 298 294 287 281 280 280 279 279 280 280 282
306 308 308 307 307 307 307 306 303 301 301 301 301 301 301 301 301 302 301 300 301 302 302 302 302 301 301 301 302 303 304 304 305 304 304 304 303 303 302 301 301 301 300 299 299 298 299 299 300 300 301 302 303 304 305 305 304 304 305 307 306 305 305 308 310 309 307 304 304 306 309 307 304 302 300 295 289 281 278 278 277 277 278 279 281
308 309 309 308 308 307 307 307 305 303 302 301 300 299 298 298 298 298 297 297 298 298 298 298 298 297 297 297 297 299 300 301 301 300 300 299 298 297 297 297 297 297 297 297 297 297 296 297 297 297 298 298 298 300 301 302 301 301 303 304 305 304 303 305 307 307 306 304 304 306 309 309 307 305 301 295 288 281 276 276 275 276 277 278 281
307 308 308 307 307 306 306 306 305 304 303 301 300 299 299 299 298 297 297 297 297 297 297 297 296 296 296 295 295 296 297 298 298 297 296 296 295 295 295 295 294 293 293 294 294 295 295 296 296 296 296 296 296 297 297 298 299 299 300 301 303 302 301 302 304 305 305 304 305 306 308 307 307 306 302 294 287 279 275 274 273 273 275 278 282
305 306 304 304 303 303 303 303 302 302 302 301 299 298 298 298 298 298 299 299 298 298 298 299 299 299 299 298 298 298 298 297 297 296 294 294 294 294 294 293 293 293 292 291 291 292 293 294 294 295 296 296 296 296 296 295 296 297 298 299 300 299 299 300 302 303 304 305 306 307 306 305 305 307 304 295 285 277 273 272 271 271 274 278 281
301 301 300 300 300 301 301 300 300 301 300 299 298 297 297 297 297 297 298 298 298 299 300 301 302 303 303 303 301 301 300 299 298 297 295 293 293 294 295 294 293 294 293 292 290 290 291 292 293 295 296 296 297 297 296 295 295 296 297 298 298 297 296 297 299 301 302 305 307 307 305 302 304 307 306 297 285 276 271 270 270 271 274 278 282
297 296 295 296 297 298 298 298 300 301 301 299 298 298 298 298 297 298 298 298 298 298 299 300 302 303 303 303 302 301 300 299 297 297 296 295 295 296 297 296 295 295 295 294 293 292 292 293 294 295 295 296 297 298 297 296 295 296 297 298 298 296 295 296 297 298 300 304 307 308 305 301 302 308 307 297 285 276 270 268 268 271 275 279 283
293 292 291 292 293 295 295 296 297 299 299 298 298 298 298 298 298 299 300 300 299 299 299 300 302 302 302 301 301 299 297 296 295 295 296 297 297 297 298 297 295 295 296 297 297 296 297 297 297 296 296 297 298 298 298 296 296 296 298 299 298 295 294 294 295 296 299 303 306 308 306 302 303 309 308 298 285 275 269 267 267 270 274 279 284
291 291 291 292 293 295 295 295 296 296 295 295 295 296 296 296 297 298 298 299 300 300 300 301 302 302 302 301 299 297 296 295 295 296 297 298 298 297 297 297 297 297 298 298 298 299 299 299 298 297 297 297 298 299 299 297 297 297 297 297 296 294 293 293 292 294 298 301 303 306 305 303 305 310 310 301 287 276 269 266 266 269 273 278 284
291 291 292 293 294 295 295 294 294 294 293 292 293 294 295 295 296 296 297 297 297 298 299 300 301 301 300 299 297 296 296 296 296 297 298 298 297 296 297 297 298 298 298 297 297 298 298 297 297 297 297 296 297 298 298 298 297 297 296 295 294 293 294 292 289 291 296 299 299 302 303 302 304 309 309 303 291 278 270 266 266 268 272 278 283
291 291 291 292 293 294 293 292 292 291 290 290 291 292 292 293 294 294 295 295 296 297 299 300 300 300 299 298 296 295 294 295 295 296 296 295 295 295 296 296 295 295 295 294 294 295 295 295 295 295 295 296 296 297 296 296 297 296 295 294 292 293 295 293 289 289 294 296 297 299 300 300 302 305 306 302 294 283 273 267 265 267 272 277 282
Height
5813 5811 5809 5807 5806 5804 5802 5800 5797 5796 5793 5791 5789 5787 5785 5783 5781 5778 5776 5774 5772 5770 5769 5768 5767 5767 5766 5766 5766 5765 5765 5765 5765 5764 5764 5764 5763 5763 5763 5762 5762 5762 5762 5762 5762 5762 5762 5762 5762 5762 5763 5764 5765 5765 5766 5766 5766 5767 5767 5767 5766 5765 5764 5763 5763 5762 5762 5763 5762 5762 5762 5762 5762 5762 5763 5763 5763 5764 5764 5765 5766 5767 5767 5767 5767
5814 5812 5810 5809 5807 5805 5803 5801 5800 5798 5796 5793 5791 5789 5787 5785 5783 5780 5778 5776 5774 5772 5770 5769 5768 5767 5767 5767 5766 5766 5765 5765 5764 5764 5764 5763 5763 5762 5762 5762 5761 5761 5761 5761 5761 5761 5761 5761 5761 5762 5762 5763 5763 5764 5765 5766 5766 5766 5767 5766 5766 5765 5764 5763 5762 5761 5761 5761 5761 5761 5761 5761 5761 5761 5761 5761 5762 5763 5763 5763 5764 5765 5765 5766 5766
5815 5813 5811 5810 5808 5806 5804 5803 5801 5800 5798 5796 5793 5791 5789 5787 5785 5783 5780 5778 5777 5775 5772 5771 5769 5768 5768 5767 5767 5766 5766 5765 5765 5764 5764 5763 5763 5762 5762 5762 5761 5761 5761 5761 5760 5760 5760 5760 5761 5761 5761 5762 5762 5763 5764 5764 5765 5765 5766 5765 5765 5764 5764 5763 5762 5761 5760 5760 5760 5760 5760 5759 5759 5760 5760 5760 5761 5761 5762 5762 5763 5763 5764 5764 5764
5816 5814 5812 5811 5809 5807 5806 5804 5803 5801 5799 5797 5795 5793 5791 5789 5787 5785 5783 5781 5779 5777 5775 5773 5771 5770 5769 5768 5768 5767 5767 5766 5765 5764 5764 5763 5763 5762 5762 5761 5761 5761 5760 5760 5760 5760 5760 5760 5760 5760 5760 5761 5761 5762 5763 5763 5764 5764 5764 5765 5764 5764 5763 5762 5761 5761 5760 5760 5759 5759 5759 5759 5758 5759 5759 5759 5759 5760 5760 5761 5762 5762 5762 5763 5763
5817 5815 5813 5812 5810 5808 5807 5806 5804 5802 5800 5799 5797 5795 5794 5792 5790 5788 5786 5784 5781 5779 5777 5775 5774 5772 5771 5770 5769 5768 5768 5767 5766 5765 5764 5764 5763 5762 5762 5762 5761 5761 5760 5760 5760 5759 5759 5759 5760 5760 5760 5760 5761 5761 5762 5762 5763 5763 5763 5763 5763 5763 5762 5761 5761 5760 5760 5760 5759 5759 5759 5758 5758 5758 5758 5758 5758 5758 5759 5759 5760 5760 5760 5760 5761
5817 5815 5814 5813 5811 5810 5808 5807 5805 5804 5802 5800 5799 5798 5796 5794 5792 5790 5788 5786 5784 5782 5780 5778 5776 5774 5773 5772 5770 5769 5769 5767 5766 5766 5765 5764 5763 5763 5762 5762 5761 5761 5761 5760 5760 5760 5759 5759 5759 5760 5760 5760 5760 5761 5761 5762 5762 5762 5762 5762 5762 5762 5761 5760 5760 5759 5759 5759 5759 5759 5758 5758 5757 5757 5756 5756 5756 5757 5757 5758 5758 5758 5758 5758 5758
5818 5816 5815 5814 5812 5811 5809 5808 5807 5805 5804 5802 5801 5800 5798 5796 5795 5793 5791 5789 5786 5784 5783 5781 5779 5777 5775 5774 5772 5771 5770 5768 5768 5767 5766 5765 5764 5763 5763 5762 5762 5761 5761 5761 5760 5760 5759 5759 5759 5759 5759 5760 5760 5761 5761 5761 5761 5761 5761 5761 5761 5760 5760 5759 5759 5758 5758 5758 5758 5758 5758 5757 5757 5756 5755 5755 5755 5755 5756 5756 5756 5756 5756 5755 5755
5818 5817 5816 5815 5813 5812 5810 5809 5808 5807 5805 5804 5803 5801 5800 5798 5797 5795 5793 5791 5789 5787 5785 5783 5782 5780 5778 5776 5775 5773 5772 5770 5769 5768 5767 5766 5765 5764 5763 5763 5762 5762 5761 5761 5760 5760 5759 5759 5759 5759 5759 5759 5759 5760 5760 5761 5761 5761 5760 5760 5759 5759 5759 5758 5758 5757 5757 5757 5757 5757 5757 5757 5756 5755 5755 5754 5754 5754 5754 5754 5754 5754 5753 5753 5752
5820 5819 5818 5816 5815 5813 5812 5810 5809 5808 5807 5806 5804 5803 5802 5800 5799 5797 5795 5794 5792 5790 5788 5786 5784 5782 5780 5779 5777 5776 5774 5772 5771 5770 5769 5767 5766 5765 5764 5764 5763 5762 5762 5761 5761 5760 5760 5759 5759 5759 5759 5759 5759 5759 5760 5760 5760 5760 5759 5759 5758 5758 5758 5757 5756 5756 5756 5755 5755 5755 5755 5755 5755 5754 5753 5753 5752 5752 5752 5752 5752 5751 5751 5751 5750
5822 5820 5819 5817 5816 5815 5813 5812 5811 5809 5808 5807 5806 5805 5803 5802 5800 5799 5797 5796 5794 5792 5791 5789 5787 5785 5783 5782 5780 5778 5776 5774 5773 5772 5771 5769 5768 5767 5766 5765 5764 5763 5762 5762 5761 5760 5760 5759 5759 5759 5758 5758 5758 5758 5758 5758 5758 5758 5758 5757 5757 5756 5756 5756 5755 5755 5754 5754 5754 5754 5754 5753 5753 5753 5752 5751 5751 5751 5750 5750 5750 5749 5749 5749 5748
5823 5821 5820 5819 5817 5816 5815 5813 5812 5811 5810 5809 5807 5806 5804 5803 5802 5800 5799 5797 5796 5794 5793 5791 5789 5788 5786 5784 5782 5781 5779 5777 5776 5774 5773 5771 5770 5769 5768 5766 5765 5764 5763 5762 5761 5761 5760 5760 5759 5759 5758 5758 5757 5757 5757 5757 5756 5756 5756 5755 5755 5754 5754 5754 5753 5753 5752 5752 5752 5752 5752 5752 5751 5751 5751 5750 5749 5749 5749 5748 5748 5747 5747 5747 5746
5824 5822 5820 5819 5818 5817 5816 5814 5813 5812 5811 5810 5808 5807 5806 5804 5803 5802 5800 5799 5798 5796 5795 5793 5791 5790 5788 5786 5785 5783 5781 5780 5779 5777 5775 5774 5772 5771 5770 5768 5767 5766 5765 5763 5762 5761 5761 5760 5759 5759 5758 5757 5757 5756 5756 5755 5755 5754 5754 5753 5753 5752 5752 5751 5751 5750 5750 5750 5749 5749 5749 5749 5749 5749 5749 5748 5748 5747 5747 5746 5746 5745 5745 5745 5744
5825 5823 5822 5821 5819 5818 5817 5815 5814 5813 5812 5810 5809 5808 5807 5806 5804 5803 5802 5801 5799 5798 5796 5795 5793 5792 5790 5788 5787 5785 5784 5782 5781 5779 5777 5776 5775 5774 5772 5771 5769 5768 5766 5765 5764 5763 5761 5760 5760 5759 5758 5757 5757 5756 5755 5755 5754 5753 5752 5752 5751 5750 5750 5749 5748 5748 5747 5747 5747 5746 5746 5746 5746 5746 5746 5746 5745 5745 5745 5744 5744 5743 5743 5742 5742
5825 5824 5823 5822 5820 5818 5817 5816 5815 5814 5813 5811 5810 5809 5808 5806 5805 5804 5803 5802 5800 5799 5797 5796 5795 5793 5792 5790 5789 5787 5786 5784 5783 5781 5779 5778 5777 5776 5774 5773 5771 5770 5768 5767 5765 5764 5763 5761 5760 5759 5758 5758 5757 5756 5755 5754 5753 5752 5752 5751 5750 5749 5748 5747 5746 5746 5745 5744 5744 5743 5743 5743 5743 5743 5743 5743 5743 5742 5742 5742 5741 5741 5740 5740 5740
5826 5825 5824 5823 5821 5819 5818 5817 5816 5815 5814 5812 5811 5809 5808 5807 5806 5805 5803 5802 5801 5800 5798 5797 5796 5794 5793 5791 5790 5788 5787 5786 5784 5783 5781 5780 5779 5777 5776 5774 5773 5771 5770 5768 5767 5765 5764 5763 5761 5760 5759 5758 5757 5756 5755 5754 5753 5752 5751 5750 5749 5748 5747 5746 5745 5744 5743 5742 5742 5741 5740 5740 5739 5739 5739 5739 5739 5739 5739 5739 5738 5738 5738 5737 5737
5827 5826 5825 5823 5822 5820 5818 5817 5816 5815 5814 5813 5812 5810 5809 5807 5806 5805 5803 5802 5801 5800 5799 5798 5796 5795 5794 5792 5791 5790 5788 5787 5786 5784 5783 5781 5780 5779 5777 5775 5774 5772 5771 5769 5768 5767 5765 5764 5763 5761 5760 5759 5758 5757 5755 5754 5753 5752 5750 5749 5748 5747 5745 5744 5743 5742 5741 5740 5739 5738 5738 5737 5736 5736 5736 5735 5735 5735 5735 5735 5735 5735 5735 5734 5734
5826 5825 5825 5823 5821 5820 5819 5817 5816 5815 5814 5813 5812 5810 5809 5807 5806 5805 5803 5802 5801 5800 5798 5797 5796 5795 5794 5793 5792 5790 5789 5788 5786 5785 5784 5782 5781 5779 5778 5776 5774 5773 5771 5770 5769 5767 5766 5765 5763 5762 5761 5760 5758 5757 5756 5755 5753 5752 5751 5749 5748 5746 5745 5744 5742 5741 5740 5738 5737 5736 5735 5734 5733 5733 5732 5732 5732 5731 5731 5731 5731 5731 5731 5731 5731
5825 5824 5823 5822 5821 5819 5819 5818 5817 5816 5814 5813 5812 5810 5809 5808 5806 5805 5803 5802 5801 5799 5798 5797 5796 5795 5794 5793 5792 5791 5789 5788 5787 5785 5784 5782 5781 5780 5778 5776 5775 5773 5772 5770 5769 5767 5766 5765 5764 5762 5761 5760 5759 5757 5756 5755 5754 5752 5751 5749 5748 5746 5745 5743 5742 5740 5739 5737 5736 5734 5733 5731 5730 5730 5729 5728 5728 5728 5728 5728 5727 5727 5727 5727 5728
5824 5823 5822 5821 5821 5820 5819 5819 5818 5816 5814 5813 5811 5810 5809 5808 5806 5805 5803 5802 5800 5799 5798 5796 5795 5794 5793 5792 5791 5790 5789 5788 5786 5785 5783 5782 5781 5779 5778 5776 5774 5773 5772 5770 5769 5767 5766 5765 5763 5762 5761 5759 5758 5757 5756 5755 5753 5752 5751 5749 5748 5746 5745 5743 5741 5739 5738 5736 5734 5733 5731 5729 5728 5727 5726 5725 5724 5724 5724 5724 5724 5723 5723 5723 5724
5823 5822 5822 5821 5821 5820 5819 5818 5817 5815 5814 5813 5811 5810 5808 5807 5806 5804 5803 5801 5800 5798 5797 5796 5795 5793 5792 5791 5790 5789 5788 5787 5786 5784 5783 5781 5780 5778 5777 5775 5774 5773 5771 5770 5768 5767 5766 5764 5763 5761 5760 5759 5758 5757 5755 5754 5753 5751 5750 5749 5747 5746 5744 5742 5741 5739 5737 5735 5733 5732 5730 5728 5726 5724 5723 5722 5721 5720 5720 5720 5720 5720 5720 5719 5719
5823 5822 5821 5820 5820 5819 5818 5817 5816 5815 5814 5812 5811 5810 5808 5807 5805 5804 5802 5801 5799 5798 5797 5795 5794 5793 5792 5791 5789 5788 5787 5786 5785 5783 5782 5780 5778 5776 5775 5774 5773 5772 5770 5769 5767 5766 5765 5764 5762 5761 5760 5758 5757 5756 5754 5753 5752 5750 5749 5747 5746 5745 5743 5741 5740 5738 5736 5734 5732 5731 5729 5727 5725 5723 5721 5719 5718 5717 5716 5716 5716 5716 5716 5716 5716
5822 5821 5820 5819 5818 5818 5817 5816 5815 5814 5813 5812 5810 5809 5808 5806 5804 5803 5802 5800 5799 5798 5796 5795 5794 5792 5791 5790 5788 5787 5786 5785 5783 5782 5781 5779 5777 5775 5774 5772 5771 5770 5768 5767 5766 5765 5763 5762 5761 5760 5758 5757 5756 5754 5753 5752 5750 5749 5748 5746 5745 5743 5742 5740 5738 5736 5735 5733 5731 5729 5727 5726 5724 5722 5720 5717 5715 5714 5713 5712 5712 5712 5712 5712 5712
5821 5820 5819 5818 5817 5816 5816 5815 5813 5812 5811 5810 5809 5808 5807 5806 5804 5802 5801 5799 5798 5797 5795 5794 5793 5792 5790 5789 5787 5786 5785 5783 5782 5781 5779 5778 5776 5775 5773 5771 5770 5768 5766 5765 5764 5763 5761 5760 5759 5758 5757 5755 5754 5752 5751 5750 5749 5747 5746 5745 5743 5742 5740 5738 5736 5735 5733 5731 5729 5728 5726 5724 5722 5720 5718 5716 5714 5712 5710 5709 5708 5708 5708 5708 5709
5819 5818 5818 5817 5816 5815 5814 5813 5812 5811 5810 5809 5808 5807 5806 5805 5803 5802 5800 5799 5797 5796 5795 5793 5792 5790 5789 5788 5787 5785 5783 5782 5780 5779 5778 5777 5775 5773 5772 5770 5768 5766 5765 5763 5762 5760 5759 5758 5757 5756 5755 5753 5751 5750 5749 5748 5746 5745 5743 5742 5741 5739 5738 5736 5734 5733 5731 5729 5728 5726 5724 5722 5721 5719 5717 5715 5713 5711 5708 5706 5705 5704 5704 5704 5705
5817 5816 5816 5815 5815 5814 5813 5812 5811 5810 5809 5808 5806 5805 5804 5802 5802 5800 5799 5798 5796 5795 5794 5792 5791 5789 5788 5786 5785 5783 5782 5780 5779 5777 5776 5775 5773 5772 5770 5768 5767 5765 5763 5762 5760 5758 5757 5755 5754 5753 5752 5751 5749 5747 5746 5745 5744 5742 5741 5740 5738 5737 5735 5734 5732 5730 5729 5727 5725 5724 5722 5720 5718 5717 5715 5713 5712 5709 5707 5705 5703 5702 5701 5700 5700
5816 5815 5814 5813 5812 5812 5811 5810 5810 5809 5808 5806 5805 5803 5802 5800 5799 5798 5797 5796 5795 5794 5793 5791 5790 5788 5787 5785 5783 5782 5780 5779 5777 5776 5774 5773 5771 5770 5768 5767 5765 5764 5762 5760 5758 5757 5755 5753 5752 5750 5749 5749 5748 5746 5744 5742 5741 5740 5738 5737 5735 5734 5733 5731 5730 5728 5726 5725 5723 5721 5720 5718 5716 5715 5713 5711 5710 5708 5706 5704 5701 5700 5698 5697 5697
5815 5814 5813 5811 5810 5809 5808 5808 5808 5807 5806 5805 5804 5802 5801 5799 5798 5797 5796 5795 5794 5793 5791 5790 5788 5787 5785 5784 5782 5781 5779 5777 5776 5774 5772 5771 5770 5768 5767 5765 5763 5762 5760 5758 5757 5755 5753 5751 5750 5748 5747 5746 5745 5744 5742 5740 5738 5737 5736 5734 5733 5731 5730 5728 5727 5725 5724 5722 5720 5719 5717 5716 5714 5712 5711 5709 5707 5706 5704 5702 5700 5698 5696 5695 5694
5813 5812 5811 5810 5808 5807 5805 5805 5805 5804 5803 5802 5802 5801 5800 5799 5797 5796 5794 5793 5792 5791 5790 5788 5787 5785 5784 5782 5780 5779 5777 5776 5774 5772 5771 5769 5767 5766 5764 5763 5761 5759 5758 5756 5755 5753 5751 5749 5747 5745 5744 5742 5741 5740 5739 5738 5736 5735 5733 5732 5730 5729 5727 5725 5723 5722 5721 5719 5718 5716 5714 5713 5711 5710 5708 5707 5705 5703 5702 5700 5698 5696 5695 5693 5692
5811 5810 5809 5808 5807 5805 5803 5802 5801 5801 5800 5800 5799 5799 5798 5797 5796 5794 5793 5791 5790 5789 5788 5786 5785 5784 5782 5780 5778 5776 5775 5773 5772 5770 5769 5767 5765 5764 5762 5760 5759 5757 5755 5754 5752 5751 5749 5747 5745 5743 5741 5739 5738 5737 5736 5735 5733 5731 5730 5728 5727 5726 5724 5722 5720 5719 5717 5716 5714 5713 5711 5710 5708 5707 5706 5704 5703 5701 5699 5698 5696 5695 5693 5691 5690
5809 5808 5807 5806 5805 5804 5803 5801 5799 5799 5798 5797 5796 5795 5794 5794 5793 5792 5791 5790 5788 5787 5786 5784 5783 5781 5780 5778 5776 5774 5772 5771 5769 5767 5766 5764 5763 5761 5759 5758 5756 5755 5753 5751 5750 5748 5746 5744 5743 5741 5739 5737 5735 5733 5732 5731 5730 5728 5727 5725 5724 5722 5721 5719 5717 5716 5714 5713 5711 5709 5708 5707 5705 5704 5703 5701 5700 5698 5697 5695 5694 5692 5691 5689 5688
5806 5806 5805 5804 5803 5802 5801 5800 5798 5797 5796 5795 5794 5793 5792 5791 5790 5789 5788 5787 5786 5785 5783 5782 5780 5779 5777 5775 5774 5772 5770 5768 5766 5764 5762 5760 5759 5758 5756 5755 5753 5751 5750 5748 5747 5745 5744 5742 5740 5738 5736 5735 5733 5731 5729 5728 5727 5725 5724 5722 5721 5719 5718 5716 5715 5713 5711 5709 5707 5706 5704 5703 5702 5701 5700 5698 5697 5695 5694 5692 5691 5689 5688 5687 5685
5804 5803 5802 5802 5801 5800 5799 5798 5797 5796 5794 5793 5792 5791 5790 5788 5787 5786 5785 5784 5783 5782 5780 5779 5778 5776 5774 5773 5771 5769 5767 5765 5764 5762 5760 5758 5756 5755 5753 5752 5750 5748 5747 5745 5743 5742 5740 5739 5737 5735 5733 5731 5730 5728 5726 5725 5723 5722 5721 5719 5718 5716 5714 5713 5711 5710 5708 5706 5704 5702 5701 5700 5698 5697 5696 5695 5693 5692 5691 5689 5688 5686 5685 5684 5682
5802 5801 5800 5799 5798 5798 5797 5796 5796 5795 5793 5792 5791 5789 5788 5787 5785 5783 5782 5781 5780 5778 5777 5776 5774 5772 5771 5769 5767 5766 5764 5762 5760 5759 5757 5756 5754 5752 5751 5749 5748 5746 5744 5742 5741 5739 5737 5736 5734 5733 5731 5729 5727 5725 5724 5722 5720 5719 5717 5716 5714 5712 5711 5709 5708 5706 5704 5703 5701 5699 5697 5695 5694 5693 5692 5691 5690 5689 5687 5686 5684 5683 5682 5680 5679
5800 5799 5798 5797 5796 5796 5795 5794 5793 5792 5791 5790 5788 5787 5786 5784 5783 5781 5779 5778 5777 5776 5774 5773 5771 5769 5768 5766 5764 5762 5761 5759 5757 5756 5754 5753 5751 5750 5748 5747 5745 5743 5742 5740 5738 5736 5734 5733 5731 5730 5728 5726 5724 5722 5721 5719 5717 5716 5714 5713 5711 5709 5707 5706 5704 5703 5701 5700 5698 5695 5693 5691 5690 5688 5688 5687 5686 5685 5684 5682 5681 5679 5678 5676 5675
5800 5798 5797 5796 5795 5794 5793 5791 5790 5789 5788 5787 5786 5785 5783 5782 5780 5779 5777 5776 5775 5774 5773 5771 5769 5767 5765 5763 5762 5760 5758 5756 5754 5753 5751 5749 5748 5747 5745 5743 5742 5740 5738 5737 5735 5733 5731 5730 5728 5727 5725 5723 5720 5719 5717 5715 5714 5713 5711 5709 5708 5706 5704 5702 5701 5700 5698 5696 5694 5692 5690 5687 5685 5684 5682 5682 5681 5680 5679 5678 5677 5675 5674 5673 5672
5798 5797 5796 5795 5793 5792 5791 5789 5788 5787 5786 5785 5784 5783 5781 5779 5778 5776 5774 5773 5773 5772 5771 5769 5766 5765 5763 5761 5759 5758 5756 5754 5752 5749 5747 5746 5744 5743 5742 5740 5738 5737 5735 5733 5732 5730 5728 5727 5725 5723 5722 5720 5718 5716 5714 5712 5711 5709 5708 5706 5705 5703 5701 5699 5697 5696 5694 5693 5691 5689 5687 5684 5682 5679 5678 5677 5676 5675 5675 5674 5672 5671 5670 5669 5668
5797 5795 5794 5793 5791 5790 5788 5787 5786 5784 5783 5783 5781 5780 5779 5777 5775 5774 5772 5770 5769 5768 5768 5766 5764 5763 5761 5759 5757 5755 5753 5751 5749 5747 5744 5742 5741 5739 5738 5736 5734 5733 5731 5729 5728 5727 5725 5724 5722 5720 5719 5717 5715 5713 5711 5709 5708 5706 5705 5703 5701 5700 5698 5695 5693 5692 5690 5688 5686 5685 5683 5680 5678 5676 5674 5672 5671 5670 5669 5668 5667 5667 5665 5664 5663
5794 5793 5791 5790 5788 5787 5786 5784 5783 5782 5780 5779 5778 5777 5776 5774 5773 5771 5769 5767 5765 5764 5763 5762 5761 5759 5758 5755 5754 5752 5750 5748 5747 5745 5742 5740 5737 5735 5733 5732 5731 5729 5727 5726 5725 5723 5722 5720 5719 5717 5716 5714 5712 5710 5709 5707 5705 5703 5701 5700 5698 5696 5694 5692 5690 5688 5685 5683 5681 5679 5678 5676 5673 5671 5669 5667 5666 5665 5664 5663 5663 5662 5661 5660 5659
5792 5791 5789 5788 5786 5785 5783 5782 5781 5779 5777 5776 5775 5774 5773 5772 5770 5768 5766 5764 5762 5761 5760 5758 5757 5755 5754 5752 5750 5748 5746 5744 5743 5742 5740 5737 5734 5732 5730 5728 5727 5725 5724 5723 5721 5720 5719 5717 5715 5714 5712 5710 5709 5707 5706 5704 5702 5700 5698 5696 5694 5692 5690 5688 5686 5684 5681 5679 5676 5674 5673 5671 5668 5667 5665 5663 5661 5660 5659 5658 5658 5657 5657 5656 5655
5788 5787 5786 5785 5784 5783 5782 5780 5778 5776 5774 5773 5771 5771 5770 5769 5767 5766 5764 5761 5759 5758 5756 5755 5753 5751 5750 5748 5746 5744 5743 5741 5739 5738 5736 5734 5732 5729 5727 5725 5724 5722 5721 5720 5718 5717 5715 5714 5712 5710 5708 5707 5705 5704 5703 5701 5699 5697 5695 5693 5691 5688 5686 5684 5682 5680 5677 5674 5672 5670 5668 5666 5664 5662 5660 5658 5656 5655 5654 5654 5653 5652 5652 5651 5650
5784 5783 5782 5781 5780 5780 5779 5777 5776 5774 5772 5770 5768 5767 5766 5764 5763 5762 5760 5758 5756 5754 5753 5751 5750 5748 5746 5744 5743 5741 5739 5738 5735 5734 5732 5731 5729 5727 5725 5723 5721 5719 5718 5717 5715 5713 5712 5710 5709 5707 5705 5703 5702 5700 5699 5697 5695 5693 5691 5689 5687 5685 5682 5680 5678 5676 5673 5670 5668 5665 5663 5661 5659 5657 5655 5653 5651 5650 5649 5648 5648 5648 5647 5647 5646
5781 5780 5778 5777 5776 5775 5774 5773 5772 5770 5769 5766 5764 5763 5762 5760 5759 5758 5756 5753 5752 5750 5749 5748 5747 5745 5743 5741 5739 5737 5736 5734 5732 5730 5729 5728 5726 5724 5722 5720 5718 5716 5715 5713 5712 5710 5709 5707 5706 5704 5702 5700 5698 5696 5695 5693 5691 5689 5687 5685 5683 5680 5678 5676 5674 5671 5669 5666 5663 5661 5658 5656 5654 5652 5650 5648 5646 5644 5644 5643 5643 5643 5643 5642 5641
5776 5775 5774 5773 5771 5770 5769 5768 5766 5765 5764 5762 5760 5758 5757 5756 5755 5754 5752 5749 5747 5746 5744 5743 5742 5741 5739 5737 5735 5734 5732 5731 5729 5727 5725 5724 5723 5721 5719 5717 5715 5713 5711 5709 5708 5706 5704 5703 5702 5700 5698 5696 5694 5692 5690 5688 5686 5684 5682 5680 5678 5676 5674 5672 5669 5666 5664 5661 5659 5656 5654 5651 5649 5646 5644 5643 5641 5639 5639 5639 5639 5638 5638 5637 5637
5773 5771 5770 5768 5767 5765 5764 5763 5761 5760 5759 5757 5755 5754 5752 5751 5750 5749 5747 5745 5743 5740 5739 5738 5737 5736 5735 5734 5732 5730 5728 5726 5725 5722 5720 5719 5718 5716 5714 5713 5711 5709 5707 5705 5703 5701 5699 5698 5696 5695 5693 5691 5689 5687 5685 5683 5681 5679 5677 5675 5673 5671 5669 5667 5665 5662 5659 5656 5654 5651 5649 5647 5644 5641 5639 5638 5636 5635 5634 5634 5634 5634 5634 5633 5632
5771 5769 5767 5765 5763 5762 5760 5759 5757 5756 5754 5752 5750 5749 5747 5746 5745 5743 5741 5739 5737 5735 5733 5732 5732 5731 5730 5729 5727 5725 5723 5721 5719 5717 5715 5714 5712 5711 5709 5707 5706 5704 5702 5700 5698 5696 5694 5692 5691 5689 5687 5685 5683 5681 5679 5678 5676 5674 5672 5670 5668 5666 5664 5662 5660 5657 5654 5651 5649 5647 5645 5642 5639 5636 5634 5633 5631 5630 5630 5629 5629 5629 5629 5629 5627
5767 5765 5763 5761 5760 5758 5756 5754 5753 5752 5750 5748 5745 5743 5742 5741 5740 5738 5736 5734 5732 5729 5727 5726 5725 5725 5724 5723 5721 5719 5717 5714 5712 5710 5709 5708 5706 5705 5703 5701 5700 5698 5696 5694 5693 5691 5689 5687 5685 5684 5682 5680 5677 5675 5673 5672 5670 5668 5667 5665 5663 5661 5658 5656 5654 5652 5649 5647 5645 5642 5640 5637 5634 5632 5629 5628 5627 5626 5625 5625 5625 5625 5625 5624 5623
5762 5760 5758 5756 5755 5753 5751 5749 5748 5746 5744 5742 5740 5738 5736 5735 5734 5732 5730 5729 5726 5725 5723 5721 5720 5719 5718 5716 5715 5713 5711 5708 5706 5704 5702 5701 5700 5698 5697 5695 5693 5691 5689 5688 5686 5685 5683 5682 5680 5678 5676 5674 5672 5669 5667 5665 5664 5662 5661 5659 5657 5655 5652 5650 5648 5647 5644 5642 5640 5638 5635 5632 5630 5627 5625 5624 5623 5622 5621 5621 5620 5620 5620 5620 5619
5756 5755 5753 5751 5750 5748 5747 5745 5743 5741 5739 5736 5734 5732 5731 5729 5727 5725 5723 5721 5720 5718 5717 5716 5715 5713 5711 5710 5708 5706 5704 5702 5700 5698 5697 5695 5694 5692 5690 5688 5686 5684 5682 5680 5679 5678 5676 5675 5673 5671 5670 5668 5666 5663 5661 5659 5658 5656 5654 5652 5651 5648 5646 5644 5643 5641 5639 5638 5636 5633 5630 5628 5625 5623 5621 5620 5619 5618 5617 5617 5616 5616 5616 5615 5615
5750 5748 5747 5745 5744 5742 5741 5739 5737 5735 5733 5730 5728 5726 5725 5723 5721 5719 5716 5714 5713 5711 5710 5709 5708 5706 5705 5703 5701 5698 5696 5695 5693 5692 5691 5689 5687 5685 5683 5681 5679 5677 5675 5673 5672 5670 5669 5667 5666 5664 5663 5661 5659 5657 5655 5653 5651 5649 5648 5646 5644 5642 5640 5639 5637 5636 5634 5633 5631 5629 5626 5624 5621 5619 5617 5616 5614 5613 5613 5612 5612 5612 5611 5611 5610
5743 5741 5740 5738 5737 5735 5734 5732 5730 5728 5726 5724 5722 5720 5718 5716 5714 5712 5710 5708 5706 5704 5703 5702 5701 5700 5698 5696 5693 5691 5689 5687 5686 5685 5684 5682 5679 5677 5676 5674 5672 5670 5668 5666 5664 5663 5662 5660 5659 5658 5656 5655 5653 5651 5649 5646 5644 5643 5641 5639 5638 5636 5635 5633 5632 5630 5629 5628 5626 5624 5622 5619 5617 5615 5613 5611 5610 5609 5608 5608 5608 5607 5607 5607 5606
5736 5735 5733 5731 5729 5727 5725 5724 5722 5720 5719 5718 5716 5715 5712 5709 5707 5705 5703 5701 5699 5697 5696 5694 5693 5692 5690 5688 5686 5684 5682 5681 5679 5678 5676 5674 5672 5670 5669 5667 5665 5663 5661 5659 5658 5657 5655 5654 5652 5651 5650 5649 5647 5646 5643 5641 5639 5637 5635 5633 5632 5630 5629 5627 5625 5624 5624 5622 5621 5619 5617 5615 5612 5610 5608 5607 5605 5604 5603 5603 5603 5603 5602 5602 5601